Index of /20260501/WXO-DD/model_rdps/10km/06/046
Name Last modified Size Description
Parent Directory -
20260501T06Z_MSC_RDPS_AbsoluteVorticity_IsbL-0250_RLatLon0.09_PT046H.grib2 2026-05-01 08:53 609K
20260501T06Z_MSC_RDPS_AbsoluteVorticity_IsbL-0500_RLatLon0.09_PT046H.grib2 2026-05-01 08:53 566K
20260501T06Z_MSC_RDPS_AbsoluteVorticity_IsbL-0700_RLatLon0.09_PT046H.grib2 2026-05-01 08:53 622K
20260501T06Z_MSC_RDPS_AbsoluteVorticity_IsbL-0850_RLatLon0.09_PT046H.grib2 2026-05-01 08:53 777K
20260501T06Z_MSC_RDPS_AirTemp_AGL-120m_RLatLon0.09_PT046H.grib2 2026-05-01 08:53 366K
20260501T06Z_MSC_RDPS_AirTemp_AGL-2m_RLatLon0.09_PT046H.grib2 2026-05-01 08:53 620K
20260501T06Z_MSC_RDPS_AirTemp_AGL-40m_RLatLon0.09_PT046H.grib2 2026-05-01 08:53 382K
20260501T06Z_MSC_RDPS_AirTemp_AGL-80m_RLatLon0.09_PT046H.grib2 2026-05-01 08:53 372K
20260501T06Z_MSC_RDPS_AirTemp_IsbL-0001_RLatLon0.09_PT046H.grib2 2026-05-01 08:53 295K
20260501T06Z_MSC_RDPS_AirTemp_IsbL-0005_RLatLon0.09_PT046H.grib2 2026-05-01 08:53 285K
20260501T06Z_MSC_RDPS_AirTemp_IsbL-0010_RLatLon0.09_PT046H.grib2 2026-05-01 08:53 294K
20260501T06Z_MSC_RDPS_AirTemp_IsbL-0020_RLatLon0.09_PT046H.grib2 2026-05-01 08:53 406K
20260501T06Z_MSC_RDPS_AirTemp_IsbL-0030_RLatLon0.09_PT046H.grib2 2026-05-01 08:53 335K
20260501T06Z_MSC_RDPS_AirTemp_IsbL-0050_RLatLon0.09_PT046H.grib2 2026-05-01 08:53 314K
20260501T06Z_MSC_RDPS_AirTemp_IsbL-0100_RLatLon0.09_PT046H.grib2 2026-05-01 08:53 422K
20260501T06Z_MSC_RDPS_AirTemp_IsbL-0150_RLatLon0.09_PT046H.grib2 2026-05-01 08:53 418K
20260501T06Z_MSC_RDPS_AirTemp_IsbL-0175_RLatLon0.09_PT046H.grib2 2026-05-01 08:53 405K
20260501T06Z_MSC_RDPS_AirTemp_IsbL-0200_RLatLon0.09_PT046H.grib2 2026-05-01 08:53 409K
20260501T06Z_MSC_RDPS_AirTemp_IsbL-0225_RLatLon0.09_PT046H.grib2 2026-05-01 08:53 412K
20260501T06Z_MSC_RDPS_AirTemp_IsbL-0250_RLatLon0.09_PT046H.grib2 2026-05-01 08:53 418K
20260501T06Z_MSC_RDPS_AirTemp_IsbL-0275_RLatLon0.09_PT046H.grib2 2026-05-01 08:53 400K
20260501T06Z_MSC_RDPS_AirTemp_IsbL-0300_RLatLon0.09_PT046H.grib2 2026-05-01 08:53 408K
20260501T06Z_MSC_RDPS_AirTemp_IsbL-0350_RLatLon0.09_PT046H.grib2 2026-05-01 08:53 423K
20260501T06Z_MSC_RDPS_AirTemp_IsbL-0400_RLatLon0.09_PT046H.grib2 2026-05-01 08:53 425K
20260501T06Z_MSC_RDPS_AirTemp_IsbL-0450_RLatLon0.09_PT046H.grib2 2026-05-01 08:53 399K
20260501T06Z_MSC_RDPS_AirTemp_IsbL-0500_RLatLon0.09_PT046H.grib2 2026-05-01 08:53 411K
20260501T06Z_MSC_RDPS_AirTemp_IsbL-0550_RLatLon0.09_PT046H.grib2 2026-05-01 08:53 427K
20260501T06Z_MSC_RDPS_AirTemp_IsbL-0600_RLatLon0.09_PT046H.grib2 2026-05-01 08:53 444K
20260501T06Z_MSC_RDPS_AirTemp_IsbL-0650_RLatLon0.09_PT046H.grib2 2026-05-01 08:53 458K
20260501T06Z_MSC_RDPS_AirTemp_IsbL-0700_RLatLon0.09_PT046H.grib2 2026-05-01 08:53 481K
20260501T06Z_MSC_RDPS_AirTemp_IsbL-0750_RLatLon0.09_PT046H.grib2 2026-05-01 08:53 405K
20260501T06Z_MSC_RDPS_AirTemp_IsbL-0800_RLatLon0.09_PT046H.grib2 2026-05-01 08:53 444K
20260501T06Z_MSC_RDPS_AirTemp_IsbL-0850_RLatLon0.09_PT046H.grib2 2026-05-01 08:53 493K
20260501T06Z_MSC_RDPS_AirTemp_IsbL-0875_RLatLon0.09_PT046H.grib2 2026-05-01 08:53 515K
20260501T06Z_MSC_RDPS_AirTemp_IsbL-0900_RLatLon0.09_PT046H.grib2 2026-05-01 08:53 526K
20260501T06Z_MSC_RDPS_AirTemp_IsbL-0925_RLatLon0.09_PT046H.grib2 2026-05-01 08:53 518K
20260501T06Z_MSC_RDPS_AirTemp_IsbL-0950_RLatLon0.09_PT046H.grib2 2026-05-01 08:53 517K
20260501T06Z_MSC_RDPS_AirTemp_IsbL-0970_RLatLon0.09_PT046H.grib2 2026-05-01 08:53 510K
20260501T06Z_MSC_RDPS_AirTemp_IsbL-0985_RLatLon0.09_PT046H.grib2 2026-05-01 08:53 500K
20260501T06Z_MSC_RDPS_AirTemp_IsbL-1000_RLatLon0.09_PT046H.grib2 2026-05-01 08:53 482K
20260501T06Z_MSC_RDPS_AirTemp_IsbL-1015_RLatLon0.09_PT046H.grib2 2026-05-01 08:53 478K
20260501T06Z_MSC_RDPS_Albedo_Sfc_RLatLon0.09_PT046H.grib2 2026-05-01 08:53 159K
20260501T06Z_MSC_RDPS_CAPE_Sfc_RLatLon0.09_PT046H.grib2 2026-05-01 08:53 1.6M
20260501T06Z_MSC_RDPS_CIN_Sfc_RLatLon0.09_PT046H.grib2 2026-05-01 08:53 1.1M
20260501T06Z_MSC_RDPS_CloudWater_EAtm_RLatLon0.09_PT046H.grib2 2026-05-01 08:53 221K
20260501T06Z_MSC_RDPS_ConvectivePrecip-Accum_Sfc_RLatLon0.09_PT046H.grib2 2026-05-01 08:53 1.0M
20260501T06Z_MSC_RDPS_DewPointDepression_AGL-2m_RLatLon0.09_PT046H.grib2 2026-05-01 08:53 396K
20260501T06Z_MSC_RDPS_DewPointDepression_IsbL-0001_RLatLon0.09_PT046H.grib2 2026-05-01 08:53 193
20260501T06Z_MSC_RDPS_DewPointDepression_IsbL-0005_RLatLon0.09_PT046H.grib2 2026-05-01 08:53 193
20260501T06Z_MSC_RDPS_DewPointDepression_IsbL-0010_RLatLon0.09_PT046H.grib2 2026-05-01 08:53 193
20260501T06Z_MSC_RDPS_DewPointDepression_IsbL-0020_RLatLon0.09_PT046H.grib2 2026-05-01 08:53 193
20260501T06Z_MSC_RDPS_DewPointDepression_IsbL-0030_RLatLon0.09_PT046H.grib2 2026-05-01 08:53 193
20260501T06Z_MSC_RDPS_DewPointDepression_IsbL-0050_RLatLon0.09_PT046H.grib2 2026-05-01 08:53 104K
20260501T06Z_MSC_RDPS_DewPointDepression_IsbL-0100_RLatLon0.09_PT046H.grib2 2026-05-01 08:53 120K
20260501T06Z_MSC_RDPS_DewPointDepression_IsbL-0150_RLatLon0.09_PT046H.grib2 2026-05-01 08:53 150K
20260501T06Z_MSC_RDPS_DewPointDepression_IsbL-0175_RLatLon0.09_PT046H.grib2 2026-05-01 08:53 184K
20260501T06Z_MSC_RDPS_DewPointDepression_IsbL-0200_RLatLon0.09_PT046H.grib2 2026-05-01 08:53 218K
20260501T06Z_MSC_RDPS_DewPointDepression_IsbL-0225_RLatLon0.09_PT046H.grib2 2026-05-01 08:53 253K
20260501T06Z_MSC_RDPS_DewPointDepression_IsbL-0250_RLatLon0.09_PT046H.grib2 2026-05-01 08:53 290K
20260501T06Z_MSC_RDPS_DewPointDepression_IsbL-0275_RLatLon0.09_PT046H.grib2 2026-05-01 08:53 305K
20260501T06Z_MSC_RDPS_DewPointDepression_IsbL-0300_RLatLon0.09_PT046H.grib2 2026-05-01 08:53 324K
20260501T06Z_MSC_RDPS_DewPointDepression_IsbL-0350_RLatLon0.09_PT046H.grib2 2026-05-01 08:53 333K
20260501T06Z_MSC_RDPS_DewPointDepression_IsbL-0400_RLatLon0.09_PT046H.grib2 2026-05-01 08:53 342K
20260501T06Z_MSC_RDPS_DewPointDepression_IsbL-0450_RLatLon0.09_PT046H.grib2 2026-05-01 08:53 349K
20260501T06Z_MSC_RDPS_DewPointDepression_IsbL-0500_RLatLon0.09_PT046H.grib2 2026-05-01 08:53 353K
20260501T06Z_MSC_RDPS_DewPointDepression_IsbL-0550_RLatLon0.09_PT046H.grib2 2026-05-01 08:53 366K
20260501T06Z_MSC_RDPS_DewPointDepression_IsbL-0600_RLatLon0.09_PT046H.grib2 2026-05-01 08:53 377K
20260501T06Z_MSC_RDPS_DewPointDepression_IsbL-0650_RLatLon0.09_PT046H.grib2 2026-05-01 08:53 383K
20260501T06Z_MSC_RDPS_DewPointDepression_IsbL-0700_RLatLon0.09_PT046H.grib2 2026-05-01 08:53 393K
20260501T06Z_MSC_RDPS_DewPointDepression_IsbL-0750_RLatLon0.09_PT046H.grib2 2026-05-01 08:53 410K
20260501T06Z_MSC_RDPS_DewPointDepression_IsbL-0800_RLatLon0.09_PT046H.grib2 2026-05-01 08:53 437K
20260501T06Z_MSC_RDPS_DewPointDepression_IsbL-0850_RLatLon0.09_PT046H.grib2 2026-05-01 08:53 469K
20260501T06Z_MSC_RDPS_DewPointDepression_IsbL-0875_RLatLon0.09_PT046H.grib2 2026-05-01 08:53 474K
20260501T06Z_MSC_RDPS_DewPointDepression_IsbL-0900_RLatLon0.09_PT046H.grib2 2026-05-01 08:53 464K
20260501T06Z_MSC_RDPS_DewPointDepression_IsbL-0925_RLatLon0.09_PT046H.grib2 2026-05-01 08:53 446K
20260501T06Z_MSC_RDPS_DewPointDepression_IsbL-0950_RLatLon0.09_PT046H.grib2 2026-05-01 08:53 438K
20260501T06Z_MSC_RDPS_DewPointDepression_IsbL-0970_RLatLon0.09_PT046H.grib2 2026-05-01 08:53 430K
20260501T06Z_MSC_RDPS_DewPointDepression_IsbL-0985_RLatLon0.09_PT046H.grib2 2026-05-01 08:53 425K
20260501T06Z_MSC_RDPS_DewPointDepression_IsbL-1000_RLatLon0.09_PT046H.grib2 2026-05-01 08:53 418K
20260501T06Z_MSC_RDPS_DewPointDepression_IsbL-1015_RLatLon0.09_PT046H.grib2 2026-05-01 08:53 409K
20260501T06Z_MSC_RDPS_DewPoint_AGL-2m_RLatLon0.09_PT046H.grib2 2026-05-01 08:53 302K
20260501T06Z_MSC_RDPS_DownwardLongwaveRadiationFlux-Accum_Sfc_RLatLon0.09_PT046H.grib2 2026-05-01 08:53 366K
20260501T06Z_MSC_RDPS_DownwardShortwaveRadiationFlux-Accum_NTAtm_RLatLon0.09_PT046H.grib2 2026-05-01 08:53 126K
20260501T06Z_MSC_RDPS_DownwardShortwaveRadiationFlux-Accum_Sfc_RLatLon0.09_PT046H.grib2 2026-05-01 08:53 553K
20260501T06Z_MSC_RDPS_FreezingRain-Accum1h_Sfc_RLatLon0.09_PT046H.grib2 2026-05-01 08:53 26K
20260501T06Z_MSC_RDPS_FreezingRain-Accum_Sfc_RLatLon0.09_PT046H.grib2 2026-05-01 08:53 160K
20260501T06Z_MSC_RDPS_GeopotentialHeight_IsbL-0001_RLatLon0.09_PT046H.grib2 2026-05-01 08:53 304K
20260501T06Z_MSC_RDPS_GeopotentialHeight_IsbL-0005_RLatLon0.09_PT046H.grib2 2026-05-01 08:53 330K
20260501T06Z_MSC_RDPS_GeopotentialHeight_IsbL-0010_RLatLon0.09_PT046H.grib2 2026-05-01 08:53 298K
20260501T06Z_MSC_RDPS_GeopotentialHeight_IsbL-0020_RLatLon0.09_PT046H.grib2 2026-05-01 08:53 298K
20260501T06Z_MSC_RDPS_GeopotentialHeight_IsbL-0030_RLatLon0.09_PT046H.grib2 2026-05-01 08:53 300K
20260501T06Z_MSC_RDPS_GeopotentialHeight_IsbL-0050_RLatLon0.09_PT046H.grib2 2026-05-01 08:53 338K
20260501T06Z_MSC_RDPS_GeopotentialHeight_IsbL-0100_RLatLon0.09_PT046H.grib2 2026-05-01 08:53 282K
20260501T06Z_MSC_RDPS_GeopotentialHeight_IsbL-0150_RLatLon0.09_PT046H.grib2 2026-05-01 08:53 227K
20260501T06Z_MSC_RDPS_GeopotentialHeight_IsbL-0175_RLatLon0.09_PT046H.grib2 2026-05-01 08:53 260K
20260501T06Z_MSC_RDPS_GeopotentialHeight_IsbL-0200_RLatLon0.09_PT046H.grib2 2026-05-01 08:53 261K
20260501T06Z_MSC_RDPS_GeopotentialHeight_IsbL-0225_RLatLon0.09_PT046H.grib2 2026-05-01 08:53 262K
20260501T06Z_MSC_RDPS_GeopotentialHeight_IsbL-0250_RLatLon0.09_PT046H.grib2 2026-05-01 08:53 263K
20260501T06Z_MSC_RDPS_GeopotentialHeight_IsbL-0275_RLatLon0.09_PT046H.grib2 2026-05-01 08:53 262K
20260501T06Z_MSC_RDPS_GeopotentialHeight_IsbL-0300_RLatLon0.09_PT046H.grib2 2026-05-01 08:53 262K
20260501T06Z_MSC_RDPS_GeopotentialHeight_IsbL-0350_RLatLon0.09_PT046H.grib2 2026-05-01 08:53 229K
20260501T06Z_MSC_RDPS_GeopotentialHeight_IsbL-0400_RLatLon0.09_PT046H.grib2 2026-05-01 08:53 226K
20260501T06Z_MSC_RDPS_GeopotentialHeight_IsbL-0450_RLatLon0.09_PT046H.grib2 2026-05-01 08:53 295K
20260501T06Z_MSC_RDPS_GeopotentialHeight_IsbL-0500_RLatLon0.09_PT046H.grib2 2026-05-01 08:53 290K
20260501T06Z_MSC_RDPS_GeopotentialHeight_IsbL-0550_RLatLon0.09_PT046H.grib2 2026-05-01 08:53 288K
20260501T06Z_MSC_RDPS_GeopotentialHeight_IsbL-0600_RLatLon0.09_PT046H.grib2 2026-05-01 08:53 283K
20260501T06Z_MSC_RDPS_GeopotentialHeight_IsbL-0650_RLatLon0.09_PT046H.grib2 2026-05-01 08:53 254K
20260501T06Z_MSC_RDPS_GeopotentialHeight_IsbL-0700_RLatLon0.09_PT046H.grib2 2026-05-01 08:53 253K
20260501T06Z_MSC_RDPS_GeopotentialHeight_IsbL-0750_RLatLon0.09_PT046H.grib2 2026-05-01 08:53 337K
20260501T06Z_MSC_RDPS_GeopotentialHeight_IsbL-0800_RLatLon0.09_PT046H.grib2 2026-05-01 08:53 345K
20260501T06Z_MSC_RDPS_GeopotentialHeight_IsbL-0850_RLatLon0.09_PT046H.grib2 2026-05-01 08:53 354K
20260501T06Z_MSC_RDPS_GeopotentialHeight_IsbL-0875_RLatLon0.09_PT046H.grib2 2026-05-01 08:53 354K
20260501T06Z_MSC_RDPS_GeopotentialHeight_IsbL-0900_RLatLon0.09_PT046H.grib2 2026-05-01 08:53 360K
20260501T06Z_MSC_RDPS_GeopotentialHeight_IsbL-0925_RLatLon0.09_PT046H.grib2 2026-05-01 08:53 363K
20260501T06Z_MSC_RDPS_GeopotentialHeight_IsbL-0950_RLatLon0.09_PT046H.grib2 2026-05-01 08:53 366K
20260501T06Z_MSC_RDPS_GeopotentialHeight_IsbL-0970_RLatLon0.09_PT046H.grib2 2026-05-01 08:53 371K
20260501T06Z_MSC_RDPS_GeopotentialHeight_IsbL-0985_RLatLon0.09_PT046H.grib2 2026-05-01 08:53 378K
20260501T06Z_MSC_RDPS_GeopotentialHeight_IsbL-1000_RLatLon0.09_PT046H.grib2 2026-05-01 08:53 389K
20260501T06Z_MSC_RDPS_GeopotentialHeight_IsbL-1015_RLatLon0.09_PT046H.grib2 2026-05-01 08:53 402K
20260501T06Z_MSC_RDPS_Humidex_Sfc_RLatLon0.09_PT046H.grib2 2026-05-01 08:53 2.4M
20260501T06Z_MSC_RDPS_IcePellets-Accum1h_Sfc_RLatLon0.09_PT046H.grib2 2026-05-01 08:53 3.9K
20260501T06Z_MSC_RDPS_IcePellets-Accum_Sfc_RLatLon0.09_PT046H.grib2 2026-05-01 08:53 28K
20260501T06Z_MSC_RDPS_KIndex_Sfc_RLatLon0.09_PT046H.grib2 2026-05-01 08:53 2.4M
20260501T06Z_MSC_RDPS_LatentHeatNetFlux_Sfc_RLatLon0.09_PT046H.grib2 2026-05-01 08:53 403K
20260501T06Z_MSC_RDPS_LiftedIndex-MU-VT_IsbL-0500_RLatLon0.09_PT046H.grib2 2026-05-01 08:53 2.4M
20260501T06Z_MSC_RDPS_NetLongwaveRadiationFlux-Accum_Sfc_RLatLon0.09_PT046H.grib2 2026-05-01 08:53 542K
20260501T06Z_MSC_RDPS_NetShortwaveRadiationFlux-Accum_Sfc_RLatLon0.09_PT046H.grib2 2026-05-01 08:53 556K
20260501T06Z_MSC_RDPS_PlanetaryBoundaryLayerHeight_Sfc_RLatLon0.09_PT046H.grib2 2026-05-01 08:53 1.1M
20260501T06Z_MSC_RDPS_Precip-Accum1h_Sfc_RLatLon0.09_PT046H.grib2 2026-05-01 08:53 1.2M
20260501T06Z_MSC_RDPS_Precip-Accum_Sfc_RLatLon0.09_PT046H.grib2 2026-05-01 08:53 2.0M
20260501T06Z_MSC_RDPS_PrecipRate_Sfc_RLatLon0.09_PT046H.grib2 2026-05-01 08:53 174K
20260501T06Z_MSC_RDPS_PrecipType-Instant_Sfc_RLatLon0.09_PT046H.grib2 2026-05-01 08:53 578K
20260501T06Z_MSC_RDPS_Pressure-Trend3h_Sfc_RLatLon0.09_PT046H.grib2 2026-05-01 08:53 1.2M
20260501T06Z_MSC_RDPS_Pressure_MSL_RLatLon0.09_PT046H.grib2 2026-05-01 08:53 322K
20260501T06Z_MSC_RDPS_Pressure_PVU-1.5_RLatLon0.09_PT046H.grib2 2026-05-01 08:53 2.3M
20260501T06Z_MSC_RDPS_Pressure_PVU-1_RLatLon0.09_PT046H.grib2 2026-05-01 08:53 2.4M
20260501T06Z_MSC_RDPS_Pressure_PVU-2_RLatLon0.09_PT046H.grib2 2026-05-01 08:53 2.4M
20260501T06Z_MSC_RDPS_Pressure_Sfc_RLatLon0.09_PT046H.grib2 2026-05-01 08:53 498K
20260501T06Z_MSC_RDPS_RadiativeTemp_Sfc_RLatLon0.09_PT046H.grib2 2026-05-01 08:53 302K
20260501T06Z_MSC_RDPS_Rain-Accum1h_Sfc_RLatLon0.09_PT046H.grib2 2026-05-01 08:53 596K
20260501T06Z_MSC_RDPS_Rain-Accum_Sfc_RLatLon0.09_PT046H.grib2 2026-05-01 08:53 1.6M
20260501T06Z_MSC_RDPS_RelativeHumidity_AGL-2m_RLatLon0.09_PT046H.grib2 2026-05-01 08:53 1.0M
20260501T06Z_MSC_RDPS_RelativeHumidity_IsbL-0010_RLatLon0.09_PT046H.grib2 2026-05-01 08:53 620K
20260501T06Z_MSC_RDPS_RelativeHumidity_IsbL-0020_RLatLon0.09_PT046H.grib2 2026-05-01 08:53 664K
20260501T06Z_MSC_RDPS_RelativeHumidity_IsbL-0030_RLatLon0.09_PT046H.grib2 2026-05-01 08:53 604K
20260501T06Z_MSC_RDPS_RelativeHumidity_IsbL-0050_RLatLon0.09_PT046H.grib2 2026-05-01 08:53 308K
20260501T06Z_MSC_RDPS_RelativeHumidity_IsbL-0100_RLatLon0.09_PT046H.grib2 2026-05-01 08:53 276K
20260501T06Z_MSC_RDPS_RelativeHumidity_IsbL-0150_RLatLon0.09_PT046H.grib2 2026-05-01 08:53 410K
20260501T06Z_MSC_RDPS_RelativeHumidity_IsbL-0175_RLatLon0.09_PT046H.grib2 2026-05-01 08:53 471K
20260501T06Z_MSC_RDPS_RelativeHumidity_IsbL-0200_RLatLon0.09_PT046H.grib2 2026-05-01 08:53 546K
20260501T06Z_MSC_RDPS_RelativeHumidity_IsbL-0225_RLatLon0.09_PT046H.grib2 2026-05-01 08:53 612K
20260501T06Z_MSC_RDPS_RelativeHumidity_IsbL-0250_RLatLon0.09_PT046H.grib2 2026-05-01 08:53 671K
20260501T06Z_MSC_RDPS_RelativeHumidity_IsbL-0275_RLatLon0.09_PT046H.grib2 2026-05-01 08:53 698K
20260501T06Z_MSC_RDPS_RelativeHumidity_IsbL-0300_RLatLon0.09_PT046H.grib2 2026-05-01 08:53 741K
20260501T06Z_MSC_RDPS_RelativeHumidity_IsbL-0350_RLatLon0.09_PT046H.grib2 2026-05-01 08:53 771K
20260501T06Z_MSC_RDPS_RelativeHumidity_IsbL-0400_RLatLon0.09_PT046H.grib2 2026-05-01 08:53 785K
20260501T06Z_MSC_RDPS_RelativeHumidity_IsbL-0450_RLatLon0.09_PT046H.grib2 2026-05-01 08:53 794K
20260501T06Z_MSC_RDPS_RelativeHumidity_IsbL-0500_RLatLon0.09_PT046H.grib2 2026-05-01 08:53 803K
20260501T06Z_MSC_RDPS_RelativeHumidity_IsbL-0550_RLatLon0.09_PT046H.grib2 2026-05-01 08:53 823K
20260501T06Z_MSC_RDPS_RelativeHumidity_IsbL-0600_RLatLon0.09_PT046H.grib2 2026-05-01 08:53 844K
20260501T06Z_MSC_RDPS_RelativeHumidity_IsbL-0650_RLatLon0.09_PT046H.grib2 2026-05-01 08:53 856K
20260501T06Z_MSC_RDPS_RelativeHumidity_IsbL-0700_RLatLon0.09_PT046H.grib2 2026-05-01 08:53 877K
20260501T06Z_MSC_RDPS_RelativeHumidity_IsbL-0750_RLatLon0.09_PT046H.grib2 2026-05-01 08:53 922K
20260501T06Z_MSC_RDPS_RelativeHumidity_IsbL-0800_RLatLon0.09_PT046H.grib2 2026-05-01 08:53 1.0M
20260501T06Z_MSC_RDPS_RelativeHumidity_IsbL-0850_RLatLon0.09_PT046H.grib2 2026-05-01 08:53 1.0M
20260501T06Z_MSC_RDPS_RelativeHumidity_IsbL-0875_RLatLon0.09_PT046H.grib2 2026-05-01 08:53 1.1M
20260501T06Z_MSC_RDPS_RelativeHumidity_IsbL-0900_RLatLon0.09_PT046H.grib2 2026-05-01 08:53 1.1M
20260501T06Z_MSC_RDPS_RelativeHumidity_IsbL-0925_RLatLon0.09_PT046H.grib2 2026-05-01 08:53 1.1M
20260501T06Z_MSC_RDPS_RelativeHumidity_IsbL-0950_RLatLon0.09_PT046H.grib2 2026-05-01 08:53 1.0M
20260501T06Z_MSC_RDPS_RelativeHumidity_IsbL-0970_RLatLon0.09_PT046H.grib2 2026-05-01 08:53 1.0M
20260501T06Z_MSC_RDPS_RelativeHumidity_IsbL-0985_RLatLon0.09_PT046H.grib2 2026-05-01 08:53 1.0M
20260501T06Z_MSC_RDPS_RelativeHumidity_IsbL-1000_RLatLon0.09_PT046H.grib2 2026-05-01 08:53 1.0M
20260501T06Z_MSC_RDPS_RelativeHumidity_IsbL-1015_RLatLon0.09_PT046H.grib2 2026-05-01 08:53 1.0M
20260501T06Z_MSC_RDPS_Runoff-Accum_Sfc_RLatLon0.09_PT046H.grib2 2026-05-01 08:53 56K
20260501T06Z_MSC_RDPS_SWEATIndex_Sfc_RLatLon0.09_PT046H.grib2 2026-05-01 08:53 2.4M
20260501T06Z_MSC_RDPS_SeeingIndex_EAtm_RLatLon0.09_PT046H.grib2 2026-05-01 08:53 1.0M
20260501T06Z_MSC_RDPS_SensibleHeatNetFlux_Sfc_RLatLon0.09_PT046H.grib2 2026-05-01 08:53 287K
20260501T06Z_MSC_RDPS_ShowalterIndex_IsbL-0500_RLatLon0.09_PT046H.grib2 2026-05-01 08:53 2.6M
20260501T06Z_MSC_RDPS_SkyTransparencyIndex_EAtm_RLatLon0.09_PT046H.grib2 2026-05-01 08:53 705K
20260501T06Z_MSC_RDPS_Snow-Accum1h_Sfc_RLatLon0.09_PT046H.grib2 2026-05-01 08:53 459K
20260501T06Z_MSC_RDPS_Snow-Accum_Sfc_RLatLon0.09_PT046H.grib2 2026-05-01 08:53 701K
20260501T06Z_MSC_RDPS_SnowDensity_Sfc_RLatLon0.09_PT046H.grib2 2026-05-01 08:53 174K
20260501T06Z_MSC_RDPS_SnowDepth_Sfc_RLatLon0.09_PT046H.grib2 2026-05-01 08:53 660K
20260501T06Z_MSC_RDPS_SoilTemp_DBS-0to10cm_RLatLon0.09_PT046H.grib2 2026-05-01 08:53 239K
20260501T06Z_MSC_RDPS_SoilTemp_Sfc_RLatLon0.09_PT046H.grib2 2026-05-01 08:53 260K
20260501T06Z_MSC_RDPS_SoilVolumetricIceContent_Sfc_RLatLon0.09_PT046H.grib2 2026-05-01 08:53 158K
20260501T06Z_MSC_RDPS_SoilVolumetricWaterContent_DBS-0to10cm_RLatLon0.09_PT046H.grib2 2026-05-01 08:53 272K
20260501T06Z_MSC_RDPS_SoilVolumetricWaterContent_DBS-0to1cm_RLatLon0.09_PT046H.grib2 2026-05-01 08:53 343K
20260501T06Z_MSC_RDPS_SpecificHumidity_AGL-120m_RLatLon0.09_PT046H.grib2 2026-05-01 08:53 483K
20260501T06Z_MSC_RDPS_SpecificHumidity_AGL-2m_RLatLon0.09_PT046H.grib2 2026-05-01 08:53 647K
20260501T06Z_MSC_RDPS_SpecificHumidity_AGL-40m_RLatLon0.09_PT046H.grib2 2026-05-01 08:53 489K
20260501T06Z_MSC_RDPS_SpecificHumidity_AGL-80m_RLatLon0.09_PT046H.grib2 2026-05-01 08:53 485K
20260501T06Z_MSC_RDPS_SpecificHumidity_IsbL-0001_RLatLon0.09_PT046H.grib2 2026-05-01 08:53 358K
20260501T06Z_MSC_RDPS_SpecificHumidity_IsbL-0005_RLatLon0.09_PT046H.grib2 2026-05-01 08:53 365K
20260501T06Z_MSC_RDPS_SpecificHumidity_IsbL-0010_RLatLon0.09_PT046H.grib2 2026-05-01 08:53 396K
20260501T06Z_MSC_RDPS_SpecificHumidity_IsbL-0020_RLatLon0.09_PT046H.grib2 2026-05-01 08:53 377K
20260501T06Z_MSC_RDPS_SpecificHumidity_IsbL-0030_RLatLon0.09_PT046H.grib2 2026-05-01 08:53 370K
20260501T06Z_MSC_RDPS_SpecificHumidity_IsbL-0050_RLatLon0.09_PT046H.grib2 2026-05-01 08:53 478K
20260501T06Z_MSC_RDPS_SpecificHumidity_IsbL-0100_RLatLon0.09_PT046H.grib2 2026-05-01 08:53 421K
20260501T06Z_MSC_RDPS_SpecificHumidity_IsbL-0150_RLatLon0.09_PT046H.grib2 2026-05-01 08:53 452K
20260501T06Z_MSC_RDPS_SpecificHumidity_IsbL-0175_RLatLon0.09_PT046H.grib2 2026-05-01 08:53 534K
20260501T06Z_MSC_RDPS_SpecificHumidity_IsbL-0200_RLatLon0.09_PT046H.grib2 2026-05-01 08:53 447K
20260501T06Z_MSC_RDPS_SpecificHumidity_IsbL-0225_RLatLon0.09_PT046H.grib2 2026-05-01 08:53 449K
20260501T06Z_MSC_RDPS_SpecificHumidity_IsbL-0250_RLatLon0.09_PT046H.grib2 2026-05-01 08:53 505K
20260501T06Z_MSC_RDPS_SpecificHumidity_IsbL-0275_RLatLon0.09_PT046H.grib2 2026-05-01 08:53 466K
20260501T06Z_MSC_RDPS_SpecificHumidity_IsbL-0300_RLatLon0.09_PT046H.grib2 2026-05-01 08:53 440K
20260501T06Z_MSC_RDPS_SpecificHumidity_IsbL-0350_RLatLon0.09_PT046H.grib2 2026-05-01 08:53 566K
20260501T06Z_MSC_RDPS_SpecificHumidity_IsbL-0400_RLatLon0.09_PT046H.grib2 2026-05-01 08:53 521K
20260501T06Z_MSC_RDPS_SpecificHumidity_IsbL-0450_RLatLon0.09_PT046H.grib2 2026-05-01 08:53 573K
20260501T06Z_MSC_RDPS_SpecificHumidity_IsbL-0500_RLatLon0.09_PT046H.grib2 2026-05-01 08:53 509K
20260501T06Z_MSC_RDPS_SpecificHumidity_IsbL-0550_RLatLon0.09_PT046H.grib2 2026-05-01 08:53 584K
20260501T06Z_MSC_RDPS_SpecificHumidity_IsbL-0600_RLatLon0.09_PT046H.grib2 2026-05-01 08:53 638K
20260501T06Z_MSC_RDPS_SpecificHumidity_IsbL-0650_RLatLon0.09_PT046H.grib2 2026-05-01 08:53 554K
20260501T06Z_MSC_RDPS_SpecificHumidity_IsbL-0700_RLatLon0.09_PT046H.grib2 2026-05-01 08:53 596K
20260501T06Z_MSC_RDPS_SpecificHumidity_IsbL-0750_RLatLon0.09_PT046H.grib2 2026-05-01 08:53 648K
20260501T06Z_MSC_RDPS_SpecificHumidity_IsbL-0800_RLatLon0.09_PT046H.grib2 2026-05-01 08:53 723K
20260501T06Z_MSC_RDPS_SpecificHumidity_IsbL-0850_RLatLon0.09_PT046H.grib2 2026-05-01 08:53 798K
20260501T06Z_MSC_RDPS_SpecificHumidity_IsbL-0875_RLatLon0.09_PT046H.grib2 2026-05-01 08:53 828K
20260501T06Z_MSC_RDPS_SpecificHumidity_IsbL-0900_RLatLon0.09_PT046H.grib2 2026-05-01 08:53 843K
20260501T06Z_MSC_RDPS_SpecificHumidity_IsbL-0925_RLatLon0.09_PT046H.grib2 2026-05-01 08:53 839K
20260501T06Z_MSC_RDPS_SpecificHumidity_IsbL-0950_RLatLon0.09_PT046H.grib2 2026-05-01 08:53 838K
20260501T06Z_MSC_RDPS_SpecificHumidity_IsbL-0970_RLatLon0.09_PT046H.grib2 2026-05-01 08:53 686K
20260501T06Z_MSC_RDPS_SpecificHumidity_IsbL-0985_RLatLon0.09_PT046H.grib2 2026-05-01 08:53 678K
20260501T06Z_MSC_RDPS_SpecificHumidity_IsbL-1000_RLatLon0.09_PT046H.grib2 2026-05-01 08:53 672K
20260501T06Z_MSC_RDPS_SpecificHumidity_IsbL-1015_RLatLon0.09_PT046H.grib2 2026-05-01 08:53 660K
20260501T06Z_MSC_RDPS_SpecificHumidity_Sfc_RLatLon0.09_PT046H.grib2 2026-05-01 08:53 312K
20260501T06Z_MSC_RDPS_StormRelativeHelicity_EtaL-10000_RLatLon0.09_PT046H.grib2 2026-05-01 08:53 1.1M
20260501T06Z_MSC_RDPS_StormSeverityIndex_EtaL-10000_RLatLon0.09_PT046H.grib2 2026-05-01 08:53 1.2M
20260501T06Z_MSC_RDPS_Thickness_IsbL-0850to0700_RLatLon0.09_PT046H.grib2 2026-05-01 08:53 176K
20260501T06Z_MSC_RDPS_Thickness_IsbL-1000to0500_RLatLon0.09_PT046H.grib2 2026-05-01 08:53 196K
20260501T06Z_MSC_RDPS_Thickness_IsbL-1000to0850_RLatLon0.09_PT046H.grib2 2026-05-01 08:53 258K
20260501T06Z_MSC_RDPS_TotalCloudCover_Sfc_RLatLon0.09_PT046H.grib2 2026-05-01 08:53 651K
20260501T06Z_MSC_RDPS_TotalTotalsIndex_Sfc_RLatLon0.09_PT046H.grib2 2026-05-01 08:53 2.3M
20260501T06Z_MSC_RDPS_UVIndex-ClearSky_Sfc_RLatLon0.09_PT046H.grib2 2026-05-01 08:53 117K
20260501T06Z_MSC_RDPS_UVIndex_Sfc_RLatLon0.09_PT046H.grib2 2026-05-01 08:53 203K
20260501T06Z_MSC_RDPS_UpwardLongwaveRadiationFlux_NTAtm_RLatLon0.09_PT046H.grib2 2026-05-01 08:53 479K
20260501T06Z_MSC_RDPS_UpwardShortwaveRadiationFlux_NTAtm_RLatLon0.09_PT046H.grib2 2026-05-01 08:53 162K
20260501T06Z_MSC_RDPS_VerticalVelocity_IsbL-0250_RLatLon0.09_PT046H.grib2 2026-05-01 08:53 427K
20260501T06Z_MSC_RDPS_VerticalVelocity_IsbL-0500_RLatLon0.09_PT046H.grib2 2026-05-01 08:53 537K
20260501T06Z_MSC_RDPS_VerticalVelocity_IsbL-0700_RLatLon0.09_PT046H.grib2 2026-05-01 08:53 589K
20260501T06Z_MSC_RDPS_VerticalVelocity_IsbL-0850_RLatLon0.09_PT046H.grib2 2026-05-01 08:53 689K
20260501T06Z_MSC_RDPS_VerticalWindShear_EtaL-6500_RLatLon0.09_PT046H.grib2 2026-05-01 08:53 1.2M
20260501T06Z_MSC_RDPS_WindChill_Sfc_RLatLon0.09_PT046H.grib2 2026-05-01 08:53 1.2M
20260501T06Z_MSC_RDPS_WindDir_AGL-10m_RLatLon0.09_PT046H.grib2 2026-05-01 08:53 953K
20260501T06Z_MSC_RDPS_WindDir_AGL-120m_RLatLon0.09_PT046H.grib2 2026-05-01 08:53 590K
20260501T06Z_MSC_RDPS_WindDir_AGL-40m_RLatLon0.09_PT046H.grib2 2026-05-01 08:53 622K
20260501T06Z_MSC_RDPS_WindDir_AGL-80m_RLatLon0.09_PT046H.grib2 2026-05-01 08:53 602K
20260501T06Z_MSC_RDPS_WindDir_IsbL-0001_RLatLon0.09_PT046H.grib2 2026-05-01 08:53 317K
20260501T06Z_MSC_RDPS_WindDir_IsbL-0005_RLatLon0.09_PT046H.grib2 2026-05-01 08:53 391K
20260501T06Z_MSC_RDPS_WindDir_IsbL-0010_RLatLon0.09_PT046H.grib2 2026-05-01 08:53 396K
20260501T06Z_MSC_RDPS_WindDir_IsbL-0020_RLatLon0.09_PT046H.grib2 2026-05-01 08:53 428K
20260501T06Z_MSC_RDPS_WindDir_IsbL-0030_RLatLon0.09_PT046H.grib2 2026-05-01 08:53 425K
20260501T06Z_MSC_RDPS_WindDir_IsbL-0050_RLatLon0.09_PT046H.grib2 2026-05-01 08:53 416K
20260501T06Z_MSC_RDPS_WindDir_IsbL-0100_RLatLon0.09_PT046H.grib2 2026-05-01 08:53 414K
20260501T06Z_MSC_RDPS_WindDir_IsbL-0150_RLatLon0.09_PT046H.grib2 2026-05-01 08:53 409K
20260501T06Z_MSC_RDPS_WindDir_IsbL-0175_RLatLon0.09_PT046H.grib2 2026-05-01 08:53 427K
20260501T06Z_MSC_RDPS_WindDir_IsbL-0200_RLatLon0.09_PT046H.grib2 2026-05-01 08:53 438K
20260501T06Z_MSC_RDPS_WindDir_IsbL-0225_RLatLon0.09_PT046H.grib2 2026-05-01 08:53 445K
20260501T06Z_MSC_RDPS_WindDir_IsbL-0250_RLatLon0.09_PT046H.grib2 2026-05-01 08:53 446K
20260501T06Z_MSC_RDPS_WindDir_IsbL-0275_RLatLon0.09_PT046H.grib2 2026-05-01 08:53 472K
20260501T06Z_MSC_RDPS_WindDir_IsbL-0300_RLatLon0.09_PT046H.grib2 2026-05-01 08:53 471K
20260501T06Z_MSC_RDPS_WindDir_IsbL-0350_RLatLon0.09_PT046H.grib2 2026-05-01 08:53 499K
20260501T06Z_MSC_RDPS_WindDir_IsbL-0400_RLatLon0.09_PT046H.grib2 2026-05-01 08:53 516K
20260501T06Z_MSC_RDPS_WindDir_IsbL-0450_RLatLon0.09_PT046H.grib2 2026-05-01 08:53 526K
20260501T06Z_MSC_RDPS_WindDir_IsbL-0500_RLatLon0.09_PT046H.grib2 2026-05-01 08:53 537K
20260501T06Z_MSC_RDPS_WindDir_IsbL-0550_RLatLon0.09_PT046H.grib2 2026-05-01 08:53 555K
20260501T06Z_MSC_RDPS_WindDir_IsbL-0600_RLatLon0.09_PT046H.grib2 2026-05-01 08:53 576K
20260501T06Z_MSC_RDPS_WindDir_IsbL-0650_RLatLon0.09_PT046H.grib2 2026-05-01 08:53 609K
20260501T06Z_MSC_RDPS_WindDir_IsbL-0700_RLatLon0.09_PT046H.grib2 2026-05-01 08:53 652K
20260501T06Z_MSC_RDPS_WindDir_IsbL-0750_RLatLon0.09_PT046H.grib2 2026-05-01 08:53 698K
20260501T06Z_MSC_RDPS_WindDir_IsbL-0800_RLatLon0.09_PT046H.grib2 2026-05-01 08:53 758K
20260501T06Z_MSC_RDPS_WindDir_IsbL-0850_RLatLon0.09_PT046H.grib2 2026-05-01 08:53 843K
20260501T06Z_MSC_RDPS_WindDir_IsbL-0875_RLatLon0.09_PT046H.grib2 2026-05-01 08:53 876K
20260501T06Z_MSC_RDPS_WindDir_IsbL-0900_RLatLon0.09_PT046H.grib2 2026-05-01 08:53 895K
20260501T06Z_MSC_RDPS_WindDir_IsbL-0925_RLatLon0.09_PT046H.grib2 2026-05-01 08:53 905K
20260501T06Z_MSC_RDPS_WindDir_IsbL-0950_RLatLon0.09_PT046H.grib2 2026-05-01 08:53 904K
20260501T06Z_MSC_RDPS_WindDir_IsbL-0970_RLatLon0.09_PT046H.grib2 2026-05-01 08:53 912K
20260501T06Z_MSC_RDPS_WindDir_IsbL-0985_RLatLon0.09_PT046H.grib2 2026-05-01 08:53 919K
20260501T06Z_MSC_RDPS_WindDir_IsbL-1000_RLatLon0.09_PT046H.grib2 2026-05-01 08:53 930K
20260501T06Z_MSC_RDPS_WindDir_IsbL-1015_RLatLon0.09_PT046H.grib2 2026-05-01 08:53 945K
20260501T06Z_MSC_RDPS_WindGust-Max_AGL-10m_RLatLon0.09_PT046H.grib2 2026-05-01 08:53 1.0M
20260501T06Z_MSC_RDPS_WindGust-Min_AGL-10m_RLatLon0.09_PT046H.grib2 2026-05-01 08:53 964K
20260501T06Z_MSC_RDPS_WindGust_AGL-10m_RLatLon0.09_PT046H.grib2 2026-05-01 08:53 1.0M
20260501T06Z_MSC_RDPS_WindSpeed_AGL-10m_RLatLon0.09_PT046H.grib2 2026-05-01 08:53 830K
20260501T06Z_MSC_RDPS_WindSpeed_AGL-120m_RLatLon0.09_PT046H.grib2 2026-05-01 08:53 534K
20260501T06Z_MSC_RDPS_WindSpeed_AGL-40m_RLatLon0.09_PT046H.grib2 2026-05-01 08:53 536K
20260501T06Z_MSC_RDPS_WindSpeed_AGL-80m_RLatLon0.09_PT046H.grib2 2026-05-01 08:53 534K
20260501T06Z_MSC_RDPS_WindSpeed_IsbL-0001_RLatLon0.09_PT046H.grib2 2026-05-01 08:53 329K
20260501T06Z_MSC_RDPS_WindSpeed_IsbL-0005_RLatLon0.09_PT046H.grib2 2026-05-01 08:53 381K
20260501T06Z_MSC_RDPS_WindSpeed_IsbL-0010_RLatLon0.09_PT046H.grib2 2026-05-01 08:53 361K
20260501T06Z_MSC_RDPS_WindSpeed_IsbL-0020_RLatLon0.09_PT046H.grib2 2026-05-01 08:53 417K
20260501T06Z_MSC_RDPS_WindSpeed_IsbL-0030_RLatLon0.09_PT046H.grib2 2026-05-01 08:53 318K
20260501T06Z_MSC_RDPS_WindSpeed_IsbL-0050_RLatLon0.09_PT046H.grib2 2026-05-01 08:53 350K
20260501T06Z_MSC_RDPS_WindSpeed_IsbL-0100_RLatLon0.09_PT046H.grib2 2026-05-01 08:53 476K
20260501T06Z_MSC_RDPS_WindSpeed_IsbL-0150_RLatLon0.09_PT046H.grib2 2026-05-01 08:53 405K
20260501T06Z_MSC_RDPS_WindSpeed_IsbL-0175_RLatLon0.09_PT046H.grib2 2026-05-01 08:53 427K
20260501T06Z_MSC_RDPS_WindSpeed_IsbL-0200_RLatLon0.09_PT046H.grib2 2026-05-01 08:53 440K
20260501T06Z_MSC_RDPS_WindSpeed_IsbL-0225_RLatLon0.09_PT046H.grib2 2026-05-01 08:53 446K
20260501T06Z_MSC_RDPS_WindSpeed_IsbL-0250_RLatLon0.09_PT046H.grib2 2026-05-01 08:53 449K
20260501T06Z_MSC_RDPS_WindSpeed_IsbL-0275_RLatLon0.09_PT046H.grib2 2026-05-01 08:53 466K
20260501T06Z_MSC_RDPS_WindSpeed_IsbL-0300_RLatLon0.09_PT046H.grib2 2026-05-01 08:53 464K
20260501T06Z_MSC_RDPS_WindSpeed_IsbL-0350_RLatLon0.09_PT046H.grib2 2026-05-01 08:53 476K
20260501T06Z_MSC_RDPS_WindSpeed_IsbL-0400_RLatLon0.09_PT046H.grib2 2026-05-01 08:53 480K
20260501T06Z_MSC_RDPS_WindSpeed_IsbL-0450_RLatLon0.09_PT046H.grib2 2026-05-01 08:53 464K
20260501T06Z_MSC_RDPS_WindSpeed_IsbL-0500_RLatLon0.09_PT046H.grib2 2026-05-01 08:53 464K
20260501T06Z_MSC_RDPS_WindSpeed_IsbL-0550_RLatLon0.09_PT046H.grib2 2026-05-01 08:53 585K
20260501T06Z_MSC_RDPS_WindSpeed_IsbL-0600_RLatLon0.09_PT046H.grib2 2026-05-01 08:53 593K
20260501T06Z_MSC_RDPS_WindSpeed_IsbL-0650_RLatLon0.09_PT046H.grib2 2026-05-01 08:53 612K
20260501T06Z_MSC_RDPS_WindSpeed_IsbL-0700_RLatLon0.09_PT046H.grib2 2026-05-01 08:53 679K
20260501T06Z_MSC_RDPS_WindSpeed_IsbL-0750_RLatLon0.09_PT046H.grib2 2026-05-01 08:53 708K
20260501T06Z_MSC_RDPS_WindSpeed_IsbL-0800_RLatLon0.09_PT046H.grib2 2026-05-01 08:53 708K
20260501T06Z_MSC_RDPS_WindSpeed_IsbL-0850_RLatLon0.09_PT046H.grib2 2026-05-01 08:53 812K
20260501T06Z_MSC_RDPS_WindSpeed_IsbL-0875_RLatLon0.09_PT046H.grib2 2026-05-01 08:53 836K
20260501T06Z_MSC_RDPS_WindSpeed_IsbL-0900_RLatLon0.09_PT046H.grib2 2026-05-01 08:53 851K
20260501T06Z_MSC_RDPS_WindSpeed_IsbL-0925_RLatLon0.09_PT046H.grib2 2026-05-01 08:53 862K
20260501T06Z_MSC_RDPS_WindSpeed_IsbL-0950_RLatLon0.09_PT046H.grib2 2026-05-01 08:53 858K
20260501T06Z_MSC_RDPS_WindSpeed_IsbL-0970_RLatLon0.09_PT046H.grib2 2026-05-01 08:53 859K
20260501T06Z_MSC_RDPS_WindSpeed_IsbL-0985_RLatLon0.09_PT046H.grib2 2026-05-01 08:53 851K
20260501T06Z_MSC_RDPS_WindSpeed_IsbL-1000_RLatLon0.09_PT046H.grib2 2026-05-01 08:53 842K
20260501T06Z_MSC_RDPS_WindSpeed_IsbL-1015_RLatLon0.09_PT046H.grib2 2026-05-01 08:53 831K
20260501T06Z_MSC_RDPS_WindU_AGL-10m_RLatLon0.09_PT046H.grib2 2026-05-01 08:53 425K
20260501T06Z_MSC_RDPS_WindU_AGL-120m_RLatLon0.09_PT046H.grib2 2026-05-01 08:53 530K
20260501T06Z_MSC_RDPS_WindU_AGL-40m_RLatLon0.09_PT046H.grib2 2026-05-01 08:53 533K
20260501T06Z_MSC_RDPS_WindU_AGL-80m_RLatLon0.09_PT046H.grib2 2026-05-01 08:53 531K
20260501T06Z_MSC_RDPS_WindU_IsbL-0001_RLatLon0.09_PT046H.grib2 2026-05-01 08:53 240K
20260501T06Z_MSC_RDPS_WindU_IsbL-0005_RLatLon0.09_PT046H.grib2 2026-05-01 08:53 282K
20260501T06Z_MSC_RDPS_WindU_IsbL-0010_RLatLon0.09_PT046H.grib2 2026-05-01 08:53 293K
20260501T06Z_MSC_RDPS_WindU_IsbL-0020_RLatLon0.09_PT046H.grib2 2026-05-01 08:53 311K
20260501T06Z_MSC_RDPS_WindU_IsbL-0030_RLatLon0.09_PT046H.grib2 2026-05-01 08:53 312K
20260501T06Z_MSC_RDPS_WindU_IsbL-0050_RLatLon0.09_PT046H.grib2 2026-05-01 08:53 379K
20260501T06Z_MSC_RDPS_WindU_IsbL-0100_RLatLon0.09_PT046H.grib2 2026-05-01 08:53 335K
20260501T06Z_MSC_RDPS_WindU_IsbL-0150_RLatLon0.09_PT046H.grib2 2026-05-01 08:53 396K
20260501T06Z_MSC_RDPS_WindU_IsbL-0175_RLatLon0.09_PT046H.grib2 2026-05-01 08:53 418K
20260501T06Z_MSC_RDPS_WindU_IsbL-0200_RLatLon0.09_PT046H.grib2 2026-05-01 08:53 335K
20260501T06Z_MSC_RDPS_WindU_IsbL-0225_RLatLon0.09_PT046H.grib2 2026-05-01 08:53 340K
20260501T06Z_MSC_RDPS_WindU_IsbL-0250_RLatLon0.09_PT046H.grib2 2026-05-01 08:53 341K
20260501T06Z_MSC_RDPS_WindU_IsbL-0275_RLatLon0.09_PT046H.grib2 2026-05-01 08:53 356K
20260501T06Z_MSC_RDPS_WindU_IsbL-0300_RLatLon0.09_PT046H.grib2 2026-05-01 08:53 352K
20260501T06Z_MSC_RDPS_WindU_IsbL-0350_RLatLon0.09_PT046H.grib2 2026-05-01 08:53 362K
20260501T06Z_MSC_RDPS_WindU_IsbL-0400_RLatLon0.09_PT046H.grib2 2026-05-01 08:53 470K
20260501T06Z_MSC_RDPS_WindU_IsbL-0450_RLatLon0.09_PT046H.grib2 2026-05-01 08:53 469K
20260501T06Z_MSC_RDPS_WindU_IsbL-0500_RLatLon0.09_PT046H.grib2 2026-05-01 08:53 472K
20260501T06Z_MSC_RDPS_WindU_IsbL-0550_RLatLon0.09_PT046H.grib2 2026-05-01 08:53 475K
20260501T06Z_MSC_RDPS_WindU_IsbL-0600_RLatLon0.09_PT046H.grib2 2026-05-01 08:53 482K
20260501T06Z_MSC_RDPS_WindU_IsbL-0650_RLatLon0.09_PT046H.grib2 2026-05-01 08:53 482K
20260501T06Z_MSC_RDPS_WindU_IsbL-0700_RLatLon0.09_PT046H.grib2 2026-05-01 08:53 503K
20260501T06Z_MSC_RDPS_WindU_IsbL-0750_RLatLon0.09_PT046H.grib2 2026-05-01 08:53 529K
20260501T06Z_MSC_RDPS_WindU_IsbL-0800_RLatLon0.09_PT046H.grib2 2026-05-01 08:53 569K
20260501T06Z_MSC_RDPS_WindU_IsbL-0850_RLatLon0.09_PT046H.grib2 2026-05-01 08:53 621K
20260501T06Z_MSC_RDPS_WindU_IsbL-0875_RLatLon0.09_PT046H.grib2 2026-05-01 08:53 641K
20260501T06Z_MSC_RDPS_WindU_IsbL-0900_RLatLon0.09_PT046H.grib2 2026-05-01 08:53 653K
20260501T06Z_MSC_RDPS_WindU_IsbL-0925_RLatLon0.09_PT046H.grib2 2026-05-01 08:53 659K
20260501T06Z_MSC_RDPS_WindU_IsbL-0950_RLatLon0.09_PT046H.grib2 2026-05-01 08:53 654K
20260501T06Z_MSC_RDPS_WindU_IsbL-0970_RLatLon0.09_PT046H.grib2 2026-05-01 08:53 653K
20260501T06Z_MSC_RDPS_WindU_IsbL-0985_RLatLon0.09_PT046H.grib2 2026-05-01 08:53 647K
20260501T06Z_MSC_RDPS_WindU_IsbL-1000_RLatLon0.09_PT046H.grib2 2026-05-01 08:53 778K
20260501T06Z_MSC_RDPS_WindU_IsbL-1015_RLatLon0.09_PT046H.grib2 2026-05-01 08:53 770K
20260501T06Z_MSC_RDPS_WindV_AGL-10m_RLatLon0.09_PT046H.grib2 2026-05-01 08:53 425K
20260501T06Z_MSC_RDPS_WindV_AGL-120m_RLatLon0.09_PT046H.grib2 2026-05-01 08:53 414K
20260501T06Z_MSC_RDPS_WindV_AGL-40m_RLatLon0.09_PT046H.grib2 2026-05-01 08:53 416K
20260501T06Z_MSC_RDPS_WindV_AGL-80m_RLatLon0.09_PT046H.grib2 2026-05-01 08:53 415K
20260501T06Z_MSC_RDPS_WindV_IsbL-0001_RLatLon0.09_PT046H.grib2 2026-05-01 08:53 244K
20260501T06Z_MSC_RDPS_WindV_IsbL-0005_RLatLon0.09_PT046H.grib2 2026-05-01 08:53 286K
20260501T06Z_MSC_RDPS_WindV_IsbL-0010_RLatLon0.09_PT046H.grib2 2026-05-01 08:53 387K
20260501T06Z_MSC_RDPS_WindV_IsbL-0020_RLatLon0.09_PT046H.grib2 2026-05-01 08:53 314K
20260501T06Z_MSC_RDPS_WindV_IsbL-0030_RLatLon0.09_PT046H.grib2 2026-05-01 08:53 315K
20260501T06Z_MSC_RDPS_WindV_IsbL-0050_RLatLon0.09_PT046H.grib2 2026-05-01 08:53 344K
20260501T06Z_MSC_RDPS_WindV_IsbL-0100_RLatLon0.09_PT046H.grib2 2026-05-01 08:53 429K
20260501T06Z_MSC_RDPS_WindV_IsbL-0150_RLatLon0.09_PT046H.grib2 2026-05-01 08:53 397K
20260501T06Z_MSC_RDPS_WindV_IsbL-0175_RLatLon0.09_PT046H.grib2 2026-05-01 08:53 418K
20260501T06Z_MSC_RDPS_WindV_IsbL-0200_RLatLon0.09_PT046H.grib2 2026-05-01 08:53 334K
20260501T06Z_MSC_RDPS_WindV_IsbL-0225_RLatLon0.09_PT046H.grib2 2026-05-01 08:53 339K
20260501T06Z_MSC_RDPS_WindV_IsbL-0250_RLatLon0.09_PT046H.grib2 2026-05-01 08:53 340K
20260501T06Z_MSC_RDPS_WindV_IsbL-0275_RLatLon0.09_PT046H.grib2 2026-05-01 08:53 355K
20260501T06Z_MSC_RDPS_WindV_IsbL-0300_RLatLon0.09_PT046H.grib2 2026-05-01 08:53 351K
20260501T06Z_MSC_RDPS_WindV_IsbL-0350_RLatLon0.09_PT046H.grib2 2026-05-01 08:53 360K
20260501T06Z_MSC_RDPS_WindV_IsbL-0400_RLatLon0.09_PT046H.grib2 2026-05-01 08:53 364K
20260501T06Z_MSC_RDPS_WindV_IsbL-0450_RLatLon0.09_PT046H.grib2 2026-05-01 08:53 468K
20260501T06Z_MSC_RDPS_WindV_IsbL-0500_RLatLon0.09_PT046H.grib2 2026-05-01 08:53 468K
20260501T06Z_MSC_RDPS_WindV_IsbL-0550_RLatLon0.09_PT046H.grib2 2026-05-01 08:53 472K
20260501T06Z_MSC_RDPS_WindV_IsbL-0600_RLatLon0.09_PT046H.grib2 2026-05-01 08:53 479K
20260501T06Z_MSC_RDPS_WindV_IsbL-0650_RLatLon0.09_PT046H.grib2 2026-05-01 08:53 495K
20260501T06Z_MSC_RDPS_WindV_IsbL-0700_RLatLon0.09_PT046H.grib2 2026-05-01 08:53 516K
20260501T06Z_MSC_RDPS_WindV_IsbL-0750_RLatLon0.09_PT046H.grib2 2026-05-01 08:53 540K
20260501T06Z_MSC_RDPS_WindV_IsbL-0800_RLatLon0.09_PT046H.grib2 2026-05-01 08:53 576K
20260501T06Z_MSC_RDPS_WindV_IsbL-0850_RLatLon0.09_PT046H.grib2 2026-05-01 08:53 626K
20260501T06Z_MSC_RDPS_WindV_IsbL-0875_RLatLon0.09_PT046H.grib2 2026-05-01 08:53 646K
20260501T06Z_MSC_RDPS_WindV_IsbL-0900_RLatLon0.09_PT046H.grib2 2026-05-01 08:53 657K
20260501T06Z_MSC_RDPS_WindV_IsbL-0925_RLatLon0.09_PT046H.grib2 2026-05-01 08:53 663K
20260501T06Z_MSC_RDPS_WindV_IsbL-0950_RLatLon0.09_PT046H.grib2 2026-05-01 08:53 653K
20260501T06Z_MSC_RDPS_WindV_IsbL-0970_RLatLon0.09_PT046H.grib2 2026-05-01 08:53 653K
20260501T06Z_MSC_RDPS_WindV_IsbL-0985_RLatLon0.09_PT046H.grib2 2026-05-01 08:53 646K
20260501T06Z_MSC_RDPS_WindV_IsbL-1000_RLatLon0.09_PT046H.grib2 2026-05-01 08:53 777K
20260501T06Z_MSC_RDPS_WindV_IsbL-1015_RLatLon0.09_PT046H.grib2 2026-05-01 08:53 769K